Content
SEND FEEDBACK

Daily
Averages
Monthly
Summary
Canada

MONTREAL, QUEBEC


Home > North America > Canada > Quebec
Elevation: 118 feet     Latitude: 45 28N     Longitude: 073 45W

WEATHER
 
SELECT A DAY
Number of Records: 201,513;   Date Range: 1/1/95 - 10/23/14
 
SHARE

PRINT THIS DATA

[ ← Previous Day ]
WEATHER ALMANAC - JANUARY 11, 2013
[ Next Day → ]
[ °C ]   °F
Weather ElementAverageHighLow
Temperature32.6 °F37.4 °F (5:00 pm)28 °F (1:00 am)
Dewpoint19.7 °F32 °F (11:00 pm) (7:00 pm)
Humidity70.7 %87 % (11:00 pm)52 % (1:00 pm)
Wind Speed7.9 mph16.1 mph (2:00 pm)
Weather ElementAverage
Visibility15 mi
Wind DirectionESE (99.7 °)

Weather ElementTotal
Precipitation---
Heating Degree Days32.3 (Base 65)
Averaged from 33 records on January 11, 2013
WEATHER CONDITIONS BREAKOUT
WIND DIRECTION BREAKOUT
WEATHER BY HOUR - JANUARY 11, 2013
[ °C ]   °F
Local TimeTemperatureDewpointHumidityBarometerVisibilityWind DirectionWind SpeedGust SpeedPrecipitationEventsConditions
1:00 AM28.0 °F22.0 °F70 %30.54 in15.0 miSE (140°)3.5 mphClear
1:00 AM28.4 °F23.0 °F80 %30.54 in15.0 miSE (130°)3.5 mphMostly Cloudy
2:00 AM28.4 °F21.2 °F74 %30.53 in15.0 miESE (120°)4.6 mphMostly Cloudy
3:00 AM30.2 °F21.2 °F69 %30.51 in15.0 miEast (100°)6.9 mphMostly Cloudy
4:00 AM28.4 °F21.2 °F74 %30.48 in15.0 miESE (110°)6.9 mphMostly Cloudy
5:00 AM30.2 °F21.2 °F69 %30.45 in15.0 miEast (90°)5.8 mphMostly Cloudy
6:00 AM28.4 °F21.2 °F74 %30.44 in15.0 miEast (100°)8.1 mphMostly Cloudy
7:00 AM28.4 °F21.2 °F74 %30.44 in15.0 miEast (100°)9.2 mphMostly Cloudy
7:00 AM28.0 °F21.0 °F65 %30.44 in15.0 miEast (100°)8.1 mphClear
8:00 AM28.4 °F19.4 °F69 %30.42 in15.0 miEast (100°)9.2 mphOvercast
9:00 AM28.4 °F21.2 °F74 %30.39 in15.0 miEast (90°)6.9 mphOvercast
10:00 AM30.2 °F21.2 °F69 %30.35 in15.0 miEast (90°)9.2 mphOvercast
11:00 AM32.0 °F21.2 °F64 %30.30 in15.0 miENE (60°)11.5 mphOvercast
12:00 PM32.0 °F23.0 °F69 %30.26 in15.0 miNE (40°)10.4 mphOvercast
1:00 PM33.0 °F22.0 °F52 %30.22 in15.0 miEast (90°)10.4 mphOvercast
1:00 PM33.8 °F21.2 °F60 %30.22 in15.0 miEast (90°)9.2 mphOvercast
1:29 PM33.8 °F0.0 °F15.0 miENE (70°)9.2 mphSnowLight Snow Grains
1:34 PM33.8 °F0.0 °F15.0 miENE (70°)8.1 mphRain-SnowLight Rain
2:00 PM33.8 °F23.0 °F65 %30.16 in15.0 miNE (50°)16.1 mphRainLight Rain
2:31 PM33.8 °F0.0 °F15.0 miENE (70°)13.8 mphRain-SnowLight Rain
3:00 PM33.8 °F24.8 °F70 %30.15 in15.0 miENE (60°)9.2 mphRainLight Rain
3:20 PM33.8 °F0.0 °F15.0 miENE (60°)10.4 mphOvercast
4:00 PM35.6 °F26.6 °F70 %30.11 in15.0 miNNE (30°)9.2 mphOvercast
5:00 PM37.4 °F26.6 °F65 %30.08 in15.0 miESE (110°)11.5 mphOvercast
6:00 PM37.4 °F26.6 °F65 %30.07 in15.0 miESE (110°)6.9 mphOvercast
7:00 PM35.6 °F28.4 °F75 %30.06 in15.0 miSE (130°)5.8 mphOvercast
7:00 PM36.0 °F28.0 °F63 %30.06 in15.0 miSE (140°)6.9 mphPartly Cloudy
7:36 PM35.6 °F0.0 °F15.0 miSE (140°)4.6 mphRainLight Rain
8:00 PM35.6 °F30.2 °F81 %30.05 in15.0 miSE (140°)5.8 mphLight Drizzle
9:00 PM35.6 °F30.2 °F81 %30.05 in15.0 miSE (130°)4.6 mphLight Drizzle
9:28 PM35.6 °F0.0 °F15.0 miSE (140°)4.6 mphOvercast
10:00 PM35.6 °F30.2 °F81 %30.06 in15.0 miSE (140°)2.3 mphOvercast
11:00 PM35.6 °F32.0 °F87 %30.04 in15.0 miSSE (150°)8.1 mphOvercast
Hourly data recorded from CYUL, located miles away from Montreal, Quebec







STORIES FROM OUR PARTNERS